Location: La Estación
(39.9833°N, 3.9500°W)
Time: 15:01:33
(UTC+00:00)

Cosmos 1943 - Pass Details

Date: 14 June 2025
Orbit: 830 x 849 km, 71.0° (Epoch: 19 July)

Event Time Altitude Azimuth Distance (km) Brightness Sun altitude
Rises 23:36:14 0° 334° (NNW) 3,421 7.6 -26.0°
Reaches altitude 10° 23:38:42 10° 332° (NNW) 2,482 6.5 -26.1°
Maximum altitude 23:44:22 69° 250° (WSW) 909 3.2 -26.3°
Enters shadow 23:44:40 67° 228° (SW) 917 3.1 -26.3°
